Theta_e
334 336 342 348 351 353 353 354 354 353 353 353 354 354 353 354 353 352 351 351 350 349 349 349 348 348 348 349 348 348 349 350 350 350 350 350 350 350 350 351 350 351 351 351 351 351 351 349 348 348 347 347 347 346 346 347 347 348 347 347 348 349 349 349 349 350 349 350 350 350 350 350 351 352 352 352 351 351 350 350 349 348 347 350 353
335 336 341 347 351 353 353 353 354 354 353 353 353 353 353 352 352 351 351 350 350 350 349 349 348 348 348 348 348 348 349 349 349 349 349 349 349 349 349 349 349 350 350 351 351 350 350 350 348 346 346 345 345 344 344 345 345 345 345 346 346 346 346 346 347 347 347 347 348 349 350 350 351 351 351 350 351 350 349 350 349 346 345 350 352
336 336 341 346 350 352 352 353 353 354 354 353 353 352 352 353 352 351 351 350 349 349 349 349 347 348 348 348 348 349 349 348 349 348 348 348 348 348 348 348 348 349 350 350 350 350 350 349 347 346 345 344 344 343 343 343 342 342 342 343 344 344 344 344 344 343 343 344 345 345 346 349 349 349 349 350 349 349 349 349 349 348 347 351 350
336 336 342 346 347 349 351 352 353 354 353 353 353 353 352 352 352 351 351 350 350 350 349 348 348 348 348 349 349 348 349 349 348 348 347 347 347 347 347 347 347 348 349 350 350 349 349 348 347 345 344 343 343 342 342 341 341 341 341 341 341 341 341 342 341 342 343 342 342 342 343 339 344 348 349 347 347 348 347 348 349 348 349 349 350
336 337 342 345 346 347 350 351 353 354 353 353 353 353 352 352 351 351 351 350 350 349 349 348 348 349 349 349 349 348 348 348 348 348 347 347 347 347 347 347 347 348 348 349 349 348 348 348 346 344 342 342 341 341 340 339 339 338 339 339 339 340 340 339 339 339 340 339 339 338 335 339 339 347 348 349 348 346 345 346 346 347 346 347 349
336 338 342 345 346 346 348 350 354 354 354 353 353 353 352 351 351 351 351 351 350 349 349 349 349 349 349 349 349 348 348 348 347 347 347 347 347 347 347 347 347 347 348 348 348 348 347 347 345 344 342 341 340 339 338 338 336 336 336 336 336 337 338 337 337 337 339 336 337 332 338 338 339 343 347 347 347 346 346 346 345 345 345 346 346
337 338 341 344 345 345 347 350 353 354 353 353 353 352 352 351 351 350 351 350 350 349 349 349 349 349 349 349 349 349 348 348 347 347 347 347 347 347 347 346 347 347 347 347 347 347 346 346 344 343 342 340 339 338 337 336 335 334 333 333 332 333 336 335 335 337 337 332 333 336 337 337 338 339 346 346 345 346 346 346 346 346 346 346 345
336 339 341 343 344 344 345 350 352 353 353 353 353 352 351 351 351 350 350 350 349 348 348 349 349 349 350 350 349 348 348 348 347 347 347 346 346 347 346 346 346 347 346 346 346 346 345 345 343 342 341 338 337 336 336 335 334 332 331 330 330 332 333 333 335 334 335 329 330 337 338 336 337 339 346 346 345 347 347 347 346 346 346 345 343
336 338 340 342 343 343 345 347 352 353 353 353 353 352 352 351 351 350 349 349 349 349 349 349 349 349 349 349 349 348 348 348 347 347 346 345 346 346 347 347 346 346 346 346 345 345 344 343 341 340 340 338 335 334 333 332 331 330 328 327 328 329 331 333 334 332 330 328 331 335 336 336 337 338 344 346 346 346 345 345 345 344 344 342 341
336 337 339 341 341 341 344 346 352 353 353 353 352 352 351 351 350 350 349 349 349 349 349 349 348 349 349 349 349 349 348 348 347 346 345 345 346 347 347 347 346 346 346 345 344 344 342 341 340 339 338 337 334 332 331 330 329 327 325 324 326 328 331 333 331 329 325 330 334 335 336 342 337 337 343 346 345 345 344 342 342 342 341 341 341
335 337 339 340 340 341 345 349 350 351 352 352 352 352 351 350 350 349 350 349 349 349 349 349 349 349 349 349 349 349 348 348 347 346 346 346 346 347 347 346 346 345 345 343 343 342 340 339 338 337 337 335 332 330 329 327 325 323 322 323 325 328 331 331 327 322 324 327 330 332 340 342 334 335 345 345 345 344 342 342 343 342 342 341 341
335 336 338 339 339 340 344 347 349 351 350 351 352 352 351 350 350 349 350 349 350 349 349 349 349 349 349 349 348 349 348 348 347 346 346 345 346 347 346 345 343 342 341 341 341 339 338 337 336 336 335 333 330 328 327 325 323 322 321 323 326 327 329 328 321 321 322 324 325 326 325 330 334 341 344 344 343 342 341 341 341 341 341 340 340
334 335 337 337 339 339 342 347 347 349 350 351 352 351 351 350 350 349 350 349 349 349 349 349 350 349 349 349 348 348 348 348 347 346 346 345 345 345 344 343 342 341 340 339 338 337 336 336 335 333 333 331 329 327 324 323 323 321 321 323 325 326 327 325 317 319 320 321 322 323 324 325 329 343 342 342 342 341 341 340 339 339 339 339 339
332 334 335 337 339 338 339 342 344 347 349 350 351 351 351 350 350 349 349 349 349 349 349 348 350 349 349 349 348 348 347 348 346 346 346 345 344 344 343 342 342 341 340 339 337 336 335 333 336 335 333 330 327 326 324 322 321 320 321 323 324 326 324 321 322 317 319 319 321 321 321 326 331 341 340 340 340 339 337 337 337 337 336 336 337
332 332 334 336 337 339 336 340 342 344 346 348 349 350 351 350 350 350 349 349 349 349 349 349 350 349 350 350 349 348 347 347 347 346 346 345 344 343 343 342 341 341 339 338 337 336 335 333 337 335 331 328 326 324 322 320 320 319 320 322 324 325 321 313 316 315 318 320 318 320 321 323 339 339 338 338 337 336 336 335 335 335 335 335 334
329 331 333 335 336 338 338 337 339 339 342 345 346 347 349 349 349 349 349 349 350 350 349 349 350 350 350 350 349 348 348 347 346 346 345 344 344 343 341 340 341 340 339 338 338 334 332 331 335 332 329 327 325 324 321 320 319 319 320 321 323 323 320 316 314 313 315 317 317 319 320 323 335 334 335 334 334 333 333 333 333 333 333 332 331
326 330 333 333 334 337 339 339 339 335 337 338 341 343 345 347 348 348 348 348 348 349 349 349 349 349 349 349 348 347 346 346 346 346 345 344 343 342 342 339 340 337 336 335 333 331 332 333 333 331 329 326 324 323 321 319 319 319 319 319 322 321 318 315 313 312 314 316 317 318 320 323 333 333 333 332 331 331 331 331 332 331 331 330 329
323 330 333 333 333 335 337 338 339 338 340 336 335 339 342 345 345 346 345 346 346 347 347 347 347 347 346 345 344 344 344 345 344 345 345 344 342 341 341 340 338 336 333 332 332 331 331 334 332 329 328 325 323 322 320 318 317 317 317 318 320 319 317 316 312 312 314 317 314 317 318 331 331 332 332 331 330 330 329 330 330 329 328 327 326
322 327 330 332 333 334 336 337 337 339 340 340 341 339 336 340 342 343 343 343 344 344 344 344 343 344 343 341 339 338 337 339 340 341 342 340 337 333 336 338 335 334 333 332 331 331 333 332 330 329 327 325 323 321 318 316 315 315 315 317 315 313 314 312 309 310 311 313 312 314 316 331 330 330 330 331 330 329 328 328 327 326 324 326 326
320 322 326 329 332 333 334 335 336 338 339 340 341 342 335 333 337 339 340 341 341 342 341 339 336 336 337 336 333 333 331 334 330 336 334 339 334 329 332 335 337 334 333 332 331 331 332 331 330 328 326 324 323 320 317 314 314 314 315 316 311 309 304 305 306 307 309 312 313 312 326 330 329 330 329 327 325 325 327 327 325 325 325 326 326
320 319 322 327 329 332 333 334 335 336 337 338 340 342 341 331 333 333 335 337 338 338 338 333 329 328 330 328 327 335 334 334 333 336 328 334 325 324 330 334 336 335 335 334 332 331 332 331 329 328 326 324 321 318 315 313 313 313 313 311 307 299 303 305 307 307 307 309 310 312 328 327 328 328 326 325 326 327 326 326 326 327 327 327 326
321 322 320 323 328 330 332 333 334 334 336 338 340 341 342 334 340 338 335 335 332 331 334 336 329 333 326 331 334 332 332 332 333 329 330 328 324 322 327 333 335 333 334 334 332 331 331 330 329 327 325 323 317 301 304 313 314 312 312 310 297 297 300 303 303 304 305 306 308 319 326 326 327 327 327 326 326 327 327 327 326 326 326 326 325
318 320 322 323 326 330 330 332 333 334 334 336 338 340 341 340 340 340 337 331 332 331 335 333 334 334 332 333 330 330 331 332 330 327 325 321 322 321 326 330 332 330 332 333 333 330 331 329 327 326 324 318 302 296 295 294 294 306 304 296 294 295 298 301 301 302 303 306 304 324 325 325 325 325 325 326 326 326 326 326 325 325 325 325 324
320 321 324 324 324 327 329 331 332 332 334 335 337 339 340 340 340 340 339 338 337 334 335 335 335 334 333 332 329 328 328 330 324 321 321 322 321 320 324 326 327 326 327 328 329 331 330 329 326 326 317 304 295 296 295 293 291 290 293 295 294 294 297 298 300 300 300 307 305 322 325 325 325 325 325 325 325 326 326 324 325 324 323 324 324
318 317 317 323 324 325 327 329 330 331 332 334 335 337 339 339 339 340 339 339 338 337 337 337 337 335 333 332 329 327 327 327 326 324 323 322 321 321 322 322 320 319 321 318 319 320 321 317 318 312 302 299 295 293 294 291 292 292 293 295 295 294 296 298 298 298 299 301 306 319 322 325 325 325 325 326 325 325 324 324 324 323 323 323 324
311 315 318 321 323 326 326 328 328 329 331 333 334 336 336 338 338 339 339 339 338 338 337 337 336 335 333 331 328 326 325 325 323 322 321 320 320 319 318 318 315 317 317 316 314 316 313 313 311 307 301 299 296 295 294 292 290 292 293 295 295 294 294 295 297 297 298 300 305 318 319 323 325 326 326 325 326 324 325 324 324 323 323 323 323
311 314 316 319 321 324 326 325 327 328 330 331 332 332 334 337 338 338 338 338 338 337 336 336 335 334 332 329 327 326 324 323 322 321 321 319 319 317 316 316 316 315 314 314 313 312 311 310 309 307 301 298 297 296 295 294 291 292 294 294 294 294 293 295 296 297 296 300 308 316 318 320 324 325 325 326 325 324 325 324 325 323 323 323 322
308 313 314 316 318 322 325 325 326 327 328 330 330 330 331 334 336 335 336 335 336 337 336 336 334 333 330 328 326 326 324 322 322 321 321 319 318 317 316 315 315 315 312 314 312 309 309 308 308 305 302 297 296 295 295 295 293 293 294 294 293 293 293 295 295 295 295 296 300 309 316 318 321 323 325 326 324 325 325 324 323 324 323 322 322
305 308 311 314 318 320 323 325 326 325 327 329 329 330 329 330 333 333 334 331 335 336 336 335 334 331 329 327 325 325 323 323 321 321 319 319 317 315 315 315 315 314 312 311 312 310 309 308 308 306 303 300 295 295 295 295 293 293 294 293 293 292 293 294 294 295 295 295 297 304 314 318 321 321 322 325 325 325 326 324 324 324 324 323 322
303 304 307 312 315 317 320 324 326 327 326 326 328 328 328 327 329 331 333 331 333 335 333 333 333 330 328 327 325 326 324 322 320 318 318 317 315 314 314 315 314 313 313 313 311 311 309 307 306 306 304 300 296 296 295 294 294 294 293 294 293 294 294 294 295 295 295 295 295 299 312 315 320 321 321 323 326 325 326 324 325 324 324 323 322
299 299 300 306 312 315 320 322 324 323 323 324 325 327 326 327 326 328 329 330 331 331 331 332 332 330 329 326 324 324 323 322 320 318 316 316 315 314 314 313 313 313 313 313 310 311 309 308 307 306 305 300 296 295 294 294 294 294 294 293 294 293 293 293 295 296 296 296 296 297 303 313 317 321 322 321 324 324 324 325 325 324 323 323 322
298 299 299 300 307 315 320 321 323 323 323 324 323 324 324 325 324 325 326 327 327 326 327 329 327 329 327 325 324 322 320 320 320 318 317 315 314 314 313 313 314 312 312 312 310 309 308 307 304 304 302 299 296 294 293 293 293 294 292 292 291 293 292 292 295 296 295 296 295 296 297 304 314 317 320 321 322 323 323 324 325 324 324 323 323
299 299 300 300 302 308 316 320 321 320 322 324 324 324 323 323 322 323 324 324 324 324 324 325 325 325 324 323 322 321 319 320 318 318 316 316 314 314 312 313 313 312 312 310 309 307 306 302 302 299 298 295 294 294 293 291 293 293 293 292 292 292 292 292 293 295 295 296 297 296 296 299 301 311 314 318 322 322 322 321 322 324 324 323 323
298 299 300 302 304 306 312 317 317 320 321 322 322 320 322 321 320 320 320 321 322 323 323 323 323 323 323 322 322 321 319 319 318 317 317 316 314 314 313 312 311 311 311 309 309 306 305 301 301 297 298 295 294 293 292 292 291 291 292 290 290 292 291 291 292 294 295 295 296 295 296 296 297 299 301 312 316 321 321 321 320 321 322 322 322
298 299 299 300 305 308 311 315 313 316 316 317 318 320 317 320 317 317 319 320 320 321 320 321 320 321 321 321 321 320 319 318 317 318 316 315 314 313 312 313 311 310 311 309 309 304 303 302 298 297 293 293 292 292 292 292 291 292 292 291 291 291 290 292 291 291 292 293 294 295 295 295 295 297 298 296 305 311 319 321 321 321 320 320 321
297 298 299 301 302 304 307 310 310 311 311 313 314 316 317 315 315 315 317 316 317 319 318 319 320 319 320 320 320 320 318 317 316 316 316 314 314 313 313 311 310 310 310 308 307 304 301 300 297 297 294 292 291 291 291 290 290 292 290 291 290 291 290 290 291 291 292 291 296 296 296 295 294 294 299 296 298 302 312 317 319 320 320 319 319
297 297 298 300 301 302 303 304 307 309 310 310 310 311 313 314 314 314 315 314 317 316 315 317 317 318 317 319 318 319 318 316 315 315 316 314 313 313 311 310 309 309 308 306 306 304 300 299 295 294 295 293 290 289 289 289 290 291 290 289 290 291 291 291 291 292 291 291 293 295 295 295 294 301 294 294 296 296 304 312 315 316 316 318 318
296 297 298 299 299 300 301 301 303 307 310 309 310 310 311 311 310 310 312 313 314 314 315 316 317 315 316 316 317 317 316 315 314 314 314 314 314 313 310 309 308 308 307 304 305 300 299 299 296 293 293 292 290 290 290 289 290 290 289 288 289 289 289 290 291 293 291 291 291 293 295 296 295 295 294 293 293 294 296 304 309 309 309 314 318
294 295 296 297 298 299 300 300 300 302 306 309 309 310 311 312 311 311 311 311 311 311 311 313 313 314 315 315 315 315 314 314 313 313 314 312 312 311 309 307 307 306 305 303 301 297 296 296 297 294 291 291 292 290 290 289 289 289 288 288 287 287 288 289 291 290 290 291 292 293 291 293 294 293 294 293 293 292 293 294 294 293 294 308 315
293 294 295 295 296 297 298 298 299 300 302 306 308 309 310 308 311 310 312 309 310 309 311 310 310 310 311 312 313 313 313 313 313 313 313 311 310 310 310 308 306 305 303 301 299 296 296 295 295 294 292 290 289 289 289 289 287 287 287 287 287 287 288 288 288 289 291 290 291 291 290 290 291 291 292 292 292 292 292 292 291 291 291 299 309
292 292 293 293 294 295 296 296 297 298 299 300 303 304 305 305 305 307 305 305 306 308 310 309 309 308 309 310 311 311 312 312 311 312 312 310 311 309 310 308 306 305 305 304 302 299 298 297 296 293 292 290 288 287 288 289 288 287 285 285 287 286 288 289 287 289 289 289 289 291 290 290 287 289 291 290 290 290 291 291 291 290 291 290 294
290 291 291 292 293 294 294 295 296 297 297 297 299 302 301 300 301 301 302 303 306 307 306 307 307 308 307 308 309 310 311 311 309 310 310 310 308 307 307 307 305 305 305 304 301 298 296 295 294 291 290 291 290 288 290 290 286 285 285 285 285 286 286 287 287 288 288 288 289 290 290 290 289 288 287 288 289 289 289 290 290 289 289 289 290
290 290 290 291 291 292 293 293 294 295 295 296 297 297 299 300 301 300 300 301 300 302 303 303 306 307 306 307 308 308 309 308 308 307 308 307 307 306 306 305 304 304 303 301 299 298 296 295 294 295 290 288 288 288 289 291 287 283 282 283 282 284 286 286 287 288 288 287 288 289 290 289 290 288 288 288 288 287 288 288 289 288 288 287 288
289 289 289 290 291 291 291 292 293 293 294 295 296 297 298 298 298 299 299 300 298 298 300 301 303 305 305 304 304 305 307 306 305 305 306 306 305 304 302 302 303 303 303 302 300 299 297 296 294 294 294 290 287 288 290 290 286 287 284 285 280 281 280 283 286 285 286 288 288 289 289 290 289 288 287 287 287 287 288 287 288 288 288 287 287
288 288 289 289 290 289 290 291 291 292 293 293 294 296 297 298 298 299 299 298 298 298 298 299 299 298 300 301 301 301 303 304 303 303 303 302 302 302 301 301 302 301 300 300 300 300 299 297 296 294 293 295 291 288 289 290 288 290 288 281 280 281 281 279 281 283 282 285 287 287 288 289 288 288 288 287 287 287 287 287 287 287 287 287 286
287 288 288 289 289 289 290 290 290 291 291 292 293 294 294 295 295 294 294 294 294 294 293 293 295 297 297 296 298 297 298 299 298 299 298 298 299 299 299 299 299 298 299 299 299 299 298 296 295 295 294 294 296 291 289 290 290 289 287 284 284 282 282 280 283 282 281 283 285 286 287 288 287 287 287 288 287 287 287 288 287 287 287 287 286
286 287 288 288 288 289 289 289 289 290 290 290 291 292 292 292 292 292 292 292 291 292 293 293 293 294 295 295 297 298 298 299 299 297 297 296 295 295 296 297 297 298 298 299 299 299 299 298 297 295 295 295 293 292 291 291 290 289 288 288 285 284 281 283 282 281 282 283 282 284 286 285 285 286 287 288 287 287 287 287 287 287 287 287 287
286 286 287 287 287 287 288 288 289 289 289 290 290 290 290 290 290 291 291 290 290 290 291 292 293 293 293 292 293 293 294 295 296 297 297 297 296 297 294 294 295 296 297 298 298 299 299 298 297 296 295 294 293 292 292 291 290 290 291 289 288 285 283 284 281 284 281 281 282 282 282 284 284 285 287 287 287 287 287 286 287 286 287 287 287
286 286 286 286 287 287 287 287 287 288 288 288 289 289 289 289 289 289 289 289 290 290 290 291 291 291 291 292 292 292 292 293 293 293 294 294 294 295 295 294 293 293 292 295 296 297 297 296 296 295 294 294 293 293 292 291 290 291 289 289 288 288 286 285 284 283 283 281 281 280 282 283 283 284 285 287 287 287 287 287 287 287 287 287 287
285 286 286 286 286 286 286 286 286 286 287 286 287 287 288 288 288 288 287 288 289 289 289 289 289 290 289 290 290 290 291 291 291 292 292 292 292 293 294 294 293 292 291 291 290 292 294 295 295 295 295 294 294 293 292 292 292 292 291 291 289 288 286 285 284 285 284 283 285 282 280 282 282 285 287 286 287 287 286 286 286 286 287 287 287
284 285 285 285 285 285 285 285 285 286 286 285 285 285 286 286 286 286 286 286 287 287 287 287 288 288 288 288 289 289 289 289 290 290 291 291 291 291 292 292 293 292 291 290 290 290 291 291 293 293 294 294 294 293 292 292 292 291 291 290 290 289 289 286 285 285 286 285 283 284 280 282 284 284 283 286 287 286 286 285 285 286 287 287 287
Wind_Speed
7 11 10 14 15 17 18 18 17 17 16 17 16 16 15 14 13 13 13 13 12 11 11 11 11 10 10 10 11 11 11 10 10 10 10 9 9 9 8 8 8 7 8 9 11 11 12 13 12 11 11 12 11 11 10 10 10 10 10 10 10 10 11 12 11 11 11 11 11 10 10 9 10 11 11 12 12 10 10 10 9 4 5 8 12
12 10 10 11 17 17 18 19 18 17 17 17 16 15 16 15 13 12 11 12 11 11 11 11 11 11 11 11 11 11 10 10 10 9 9 9 8 7 7 7 7 7 7 9 10 11 11 12 12 11 11 11 11 10 9 9 9 9 9 9 10 10 10 11 10 11 11 10 9 9 8 10 10 11 11 12 12 10 9 10 11 7 3 12 13
9 9 10 11 16 17 17 17 19 18 18 16 16 15 15 13 14 14 12 12 11 11 11 11 11 11 11 11 12 11 10 10 9 9 9 8 7 6 7 6 6 7 7 8 10 11 11 12 12 11 11 10 11 10 10 9 9 9 8 9 9 9 10 10 9 9 8 8 7 7 8 8 10 10 11 11 12 11 9 10 11 10 6 13 11
11 9 9 12 15 16 17 18 17 17 16 15 15 14 14 14 14 14 13 13 12 12 11 11 12 12 12 12 12 11 10 10 9 9 8 7 7 6 5 5 6 6 7 8 10 11 11 12 12 12 11 10 10 10 9 9 9 8 8 8 8 9 9 9 8 7 7 7 6 5 3 3 4 9 11 11 11 12 11 10 9 11 12 12 13
10 9 9 10 11 13 16 17 18 17 17 16 15 15 15 15 15 14 14 14 13 13 13 13 12 12 12 12 11 11 11 10 10 9 8 7 6 5 5 6 6 5 6 8 10 10 11 12 12 12 11 10 10 9 9 8 8 8 8 8 8 8 9 8 7 7 6 6 3 2 2 3 2 8 10 11 12 11 11 11 12 12 12 12 13
9 9 9 10 9 10 15 16 17 18 17 16 16 15 15 15 15 14 14 14 14 14 14 14 13 13 12 12 11 10 11 10 10 9 8 7 6 5 5 5 5 6 7 9 9 11 10 12 11 11 11 10 10 9 9 8 8 8 8 7 7 7 8 7 7 8 7 5 3 2 3 2 2 2 9 9 10 11 11 12 12 11 12 13 12
10 8 9 10 8 9 14 15 16 16 18 17 17 17 16 15 15 14 14 14 13 14 14 14 14 13 12 12 11 10 10 10 9 9 9 8 6 5 5 4 5 6 8 9 9 10 10 11 10 10 10 10 10 9 8 8 8 8 7 8 7 8 8 7 7 8 6 4 4 4 3 2 1 2 8 8 9 10 11 11 12 12 12 12 12
5 7 8 9 8 10 14 15 14 16 17 16 16 16 17 16 15 15 14 14 14 14 14 14 13 13 12 12 11 11 11 10 10 9 8 8 7 6 6 5 5 8 7 8 8 9 10 10 9 8 9 9 9 8 8 7 7 7 7 7 7 8 8 8 8 6 5 3 3 4 4 2 2 2 6 8 9 10 10 12 12 12 12 12 11
7 7 8 8 8 12 13 14 14 15 17 15 14 14 15 17 15 16 16 15 14 14 15 14 13 13 13 12 12 12 11 11 11 10 9 8 8 8 8 8 8 8 8 8 8 8 9 8 8 7 7 8 8 8 7 7 7 7 7 7 7 7 8 8 8 6 3 3 3 4 3 2 2 2 5 8 9 10 10 9 9 11 11 10 10
7 7 8 8 8 13 13 14 15 15 18 16 13 13 16 14 14 15 15 15 16 15 15 15 14 14 13 13 12 12 12 11 11 11 10 9 9 9 10 10 10 10 9 10 8 8 8 7 7 5 5 7 8 8 7 7 7 7 6 6 6 7 8 8 7 5 3 3 4 3 3 4 3 3 6 9 12 12 10 8 6 5 6 9 10
8 8 7 8 9 13 14 15 15 15 17 16 14 14 16 15 15 15 14 15 16 17 16 15 14 14 13 13 13 12 12 12 12 10 10 10 10 11 11 11 10 10 10 9 7 6 5 5 4 4 5 6 7 7 6 6 5 5 5 5 5 7 8 7 6 4 4 4 4 3 3 5 3 3 10 11 12 11 10 7 7 8 9 9 10
9 8 8 8 11 15 15 15 15 15 16 15 15 15 16 16 16 16 15 15 15 15 16 15 14 14 13 13 13 13 13 13 12 12 10 10 11 12 12 10 8 5 6 5 7 5 4 3 2 3 5 6 6 6 5 4 4 4 3 4 5 6 7 7 5 5 4 4 4 3 2 1 3 6 11 10 10 9 9 8 8 9 9 9 9
8 8 8 8 9 14 15 16 15 15 16 16 16 17 16 17 16 16 15 15 15 15 14 13 12 12 13 13 12 13 13 13 13 13 12 11 10 11 12 10 9 8 6 4 2 5 3 4 4 2 5 5 5 5 4 4 4 3 3 4 5 6 6 8 4 5 4 4 4 4 3 2 1 7 8 9 8 8 8 8 8 8 9 8 7
8 8 8 8 8 13 16 16 15 16 16 16 16 16 16 17 17 17 16 15 15 14 14 14 12 11 12 11 12 12 13 13 14 14 13 12 11 10 11 10 9 8 7 6 3 3 3 3 8 8 8 7 5 4 3 3 3 3 3 5 6 6 6 6 5 4 4 4 3 3 3 2 1 7 8 7 7 6 6 6 6 6 7 7 7
10 9 8 8 8 10 16 15 15 15 15 15 16 16 17 16 17 16 17 15 14 13 13 13 11 11 10 9 11 13 13 14 15 14 13 13 12 11 10 10 9 8 6 6 5 4 5 6 8 11 8 6 5 3 3 2 2 3 4 6 6 6 7 5 4 4 4 4 3 3 4 3 2 8 7 7 5 5 5 5 6 5 6 7 6
7 9 8 8 8 8 10 13 15 15 14 15 15 15 15 16 15 15 15 15 14 14 12 12 11 10 10 9 12 13 14 15 14 14 14 12 12 11 10 8 9 8 7 6 9 8 6 4 12 10 8 6 4 4 3 3 2 4 5 6 6 7 7 6 5 4 4 4 3 3 4 3 7 2 6 6 5 3 3 3 4 3 4 5 5
4 6 8 8 8 8 10 10 11 15 14 14 14 15 14 14 15 15 15 15 14 13 13 11 11 11 10 10 11 11 12 13 12 11 10 11 12 11 8 8 11 8 7 8 6 3 5 6 11 10 8 6 4 3 3 3 3 4 5 5 6 7 6 6 5 4 4 3 3 4 4 3 5 6 4 4 4 3 3 3 3 3 4 4 4
4 5 8 7 8 8 10 9 10 10 10 11 13 14 14 14 14 14 14 14 14 13 13 12 11 11 10 9 10 11 11 13 11 11 10 11 10 9 8 9 8 8 7 6 5 6 4 11 9 9 8 5 4 3 3 4 4 5 5 5 6 7 7 7 4 3 4 4 3 2 3 4 7 6 5 4 4 4 4 3 3 3 3 2 3
3 4 4 7 8 7 9 8 9 9 10 9 8 11 15 14 14 14 14 13 13 13 13 12 11 10 10 10 10 12 11 12 12 12 11 10 9 8 9 8 8 8 8 6 6 6 9 10 9 8 7 6 5 4 3 4 5 5 5 5 6 7 8 6 4 4 3 4 3 3 3 2 5 5 5 6 5 4 4 3 3 2 2 3 3
1 4 4 5 6 7 7 8 9 10 9 9 9 10 12 14 14 14 14 13 13 13 12 11 11 11 10 11 11 11 10 8 12 11 12 11 10 9 9 7 8 9 9 9 8 8 10 9 8 8 7 7 5 4 4 4 5 5 5 5 7 7 5 4 4 4 3 3 2 3 4 2 5 5 5 4 4 3 3 4 3 3 4 4 4
2 3 4 5 5 7 8 7 8 10 10 10 9 10 11 13 12 13 14 14 13 13 12 11 11 10 10 11 11 9 6 6 8 7 11 8 10 11 10 9 9 9 9 9 9 9 10 9 7 8 8 7 6 5 4 4 4 4 5 5 6 6 4 4 4 3 2 2 2 2 3 2 5 5 4 5 5 5 5 4 4 4 4 5 4
6 5 4 4 6 6 8 9 8 10 9 8 7 8 8 11 10 9 9 11 11 11 10 8 8 6 10 9 7 6 6 5 6 7 7 8 9 12 10 10 10 9 8 9 10 10 11 9 7 8 7 7 7 2 1 2 3 4 4 5 5 4 3 4 3 3 2 2 2 3 2 3 4 5 5 5 5 5 5 5 4 4 4 3 3
7 7 6 7 7 7 6 9 9 9 9 9 7 7 9 9 10 9 8 10 9 9 8 8 6 6 6 6 6 6 6 6 6 6 6 9 8 11 11 10 10 10 9 9 9 10 11 10 8 7 7 7 3 2 1 0 1 3 4 3 3 3 3 4 3 3 2 1 2 4 2 2 3 4 5 5 5 5 6 5 5 5 5 4 4
9 8 9 5 7 8 9 9 9 9 9 8 7 7 7 8 8 8 8 8 8 8 7 7 7 7 7 6 6 6 6 5 7 10 9 6 7 10 11 11 10 10 10 7 8 8 9 9 9 8 6 4 3 2 1 0 0 1 2 2 3 3 4 3 3 2 1 1 2 4 4 1 2 4 5 5 5 5 5 6 6 4 3 3 3
8 3 4 8 8 9 7 8 7 8 8 8 8 8 8 7 7 8 7 7 7 7 7 7 7 8 7 6 6 6 5 5 6 6 6 6 5 5 5 5 4 5 7 5 5 5 5 5 5 5 4 4 3 2 1 2 1 1 1 1 1 3 3 3 3 3 1 1 1 4 5 4 0 3 6 6 6 6 6 5 5 5 4 4 4
2 5 10 8 9 8 8 7 6 7 9 8 9 8 8 7 8 8 8 7 7 7 6 6 7 7 6 6 6 6 6 5 5 6 6 6 6 6 6 5 4 5 4 6 4 5 4 6 6 5 4 3 3 3 2 2 3 1 0 0 0 2 3 3 3 3 1 1 0 2 3 5 3 3 6 7 8 7 7 6 6 7 6 6 4
7 9 7 7 7 7 8 6 8 8 9 8 7 7 7 7 7 7 8 7 7 7 7 6 7 7 7 6 7 6 6 5 5 6 6 5 6 6 6 5 6 6 4 6 5 5 6 6 6 6 4 3 3 2 2 2 2 3 1 1 1 2 3 3 2 3 1 1 1 1 2 3 4 4 4 8 7 8 8 8 8 6 7 6 4
3 9 7 7 6 9 8 7 8 8 8 7 7 7 7 7 7 7 7 7 7 7 7 6 6 6 7 6 7 6 7 6 6 6 6 5 6 6 6 6 6 6 5 6 6 4 5 5 6 5 5 4 4 3 3 3 3 3 3 3 3 3 3 3 3 3 2 1 0 1 0 2 3 5 5 6 8 8 8 7 6 9 6 6 7
3 5 5 6 7 5 5 9 8 9 8 8 8 7 6 7 7 7 8 7 7 7 7 6 6 6 7 7 7 7 6 7 7 7 6 7 6 6 6 6 6 6 5 5 6 6 5 6 6 6 6 5 4 4 4 4 4 3 5 4 4 4 4 4 4 3 3 2 1 1 1 2 3 4 4 7 8 9 9 8 9 8 9 8 7
5 6 4 4 3 3 5 9 10 9 7 7 8 7 7 7 8 8 7 7 7 7 5 6 6 6 6 7 8 8 8 7 7 6 7 7 6 6 6 6 7 6 6 7 5 6 6 5 5 6 6 5 5 5 4 5 5 4 5 6 4 5 5 5 4 5 4 3 2 1 2 2 3 3 5 6 8 9 8 10 9 8 8 7 8
6 7 7 6 4 4 7 7 7 6 5 7 7 8 6 7 8 7 6 7 7 6 6 6 6 6 6 7 7 7 8 7 7 7 6 7 6 7 7 6 6 6 6 6 6 6 6 7 7 7 6 6 6 4 5 5 5 5 4 5 6 4 4 4 4 4 4 4 3 2 1 2 2 0 2 6 8 9 9 9 10 8 8 8 9
9 9 7 7 6 4 6 6 7 6 6 6 6 6 7 7 6 6 7 7 6 6 6 6 6 6 6 7 7 6 6 7 8 7 8 7 7 7 6 6 7 6 6 6 6 5 6 5 5 5 5 4 5 4 4 4 5 5 4 5 4 5 5 4 5 4 4 4 4 3 2 1 1 1 2 3 7 7 8 8 10 10 10 10 9
6 5 8 6 8 5 4 6 5 5 6 8 8 6 5 5 6 6 6 5 6 6 6 6 6 6 6 7 7 7 6 7 7 8 8 7 7 7 7 7 6 6 5 5 6 5 5 5 4 3 4 4 4 5 3 4 5 5 4 4 5 4 4 4 5 4 4 4 4 3 2 1 0 2 3 3 1 4 5 4 6 11 11 10 10
8 8 11 13 9 5 3 2 4 5 7 5 4 5 5 5 4 4 4 5 5 6 6 6 6 6 6 7 7 7 7 7 7 7 7 7 7 8 8 7 6 6 6 6 6 5 5 5 5 5 5 6 6 6 6 6 6 4 5 4 4 5 4 4 5 5 4 4 3 3 2 1 0 0 1 4 4 1 3 3 1 5 9 9 10
9 12 12 10 10 10 7 2 1 2 1 3 4 4 3 4 4 4 5 5 6 6 6 5 5 6 6 6 7 7 7 7 7 8 7 7 7 7 7 7 7 6 7 6 7 6 6 6 6 6 4 4 5 6 6 6 5 6 6 5 6 4 3 5 3 4 4 4 3 3 3 2 1 0 0 1 4 5 3 2 3 2 4 7 8
11 9 10 11 12 12 11 8 7 4 2 2 1 0 1 1 2 3 3 4 5 5 6 6 6 6 6 6 7 7 7 7 6 6 7 7 7 8 8 6 7 6 6 6 6 7 6 6 5 6 6 5 4 6 4 5 4 6 4 5 6 4 5 4 5 4 4 4 5 4 4 3 3 2 1 0 0 2 4 3 2 2 1 1 5
11 12 12 11 13 13 12 12 11 9 5 4 4 3 2 1 1 2 3 4 4 5 5 4 5 5 6 6 6 7 7 6 7 7 7 7 6 6 6 7 6 7 7 6 7 6 7 7 5 5 6 7 6 5 4 4 6 6 5 5 5 5 6 6 6 6 4 5 5 5 4 4 4 4 3 2 1 0 2 3 4 4 4 3 2
10 11 11 11 10 9 10 11 11 10 8 7 6 5 5 5 4 4 3 2 1 1 1 4 5 5 5 6 6 6 5 5 6 6 6 7 7 7 6 6 6 6 6 6 7 5 5 7 7 6 7 6 7 7 7 4 3 4 4 4 4 4 5 5 5 4 6 6 5 7 7 6 5 5 4 4 3 1 1 1 2 3 4 4 2
11 12 13 12 12 11 11 13 13 12 9 8 7 6 6 6 5 6 6 5 5 4 4 2 2 0 3 4 4 4 5 5 5 5 6 6 5 5 6 6 6 6 6 6 5 5 5 5 7 7 4 6 7 7 6 4 2 2 3 4 2 3 3 4 5 4 4 5 6 6 4 6 6 5 5 4 4 4 3 2 1 1 1 4 4
11 13 14 15 14 14 11 13 13 12 10 9 8 7 7 7 7 7 8 7 6 6 6 5 3 3 2 1 1 2 3 4 5 5 5 5 5 5 6 5 6 6 6 6 5 6 8 7 7 8 7 4 2 4 4 5 1 0 2 3 2 3 4 4 4 5 5 6 6 3 5 5 6 5 5 5 5 4 4 4 3 5 3 3 4
15 14 14 14 13 12 13 14 11 11 11 10 9 8 7 6 5 6 3 4 5 5 7 6 6 5 5 4 2 2 1 2 3 5 5 5 5 5 4 4 4 5 6 8 9 10 9 9 8 5 8 6 3 3 4 6 5 1 2 3 4 2 2 2 5 6 6 5 3 5 5 4 4 5 6 5 5 4 5 5 5 5 5 4 4
14 14 14 12 12 14 14 12 12 12 12 9 7 6 6 3 2 3 3 5 7 7 6 6 6 6 6 5 4 4 3 3 2 1 0 2 3 3 3 5 5 6 7 4 4 4 4 4 4 4 3 7 6 6 6 7 2 6 3 3 4 5 4 4 5 6 6 4 4 5 6 6 6 6 4 5 5 5 5 6 5 5 5 5 4
10 12 11 14 15 13 12 11 11 11 11 11 10 7 4 6 5 5 3 3 3 4 5 5 6 7 7 7 7 6 5 5 4 3 2 1 0 0 2 1 3 2 3 3 4 4 5 6 7 8 5 2 2 3 6 8 6 3 2 1 4 3 4 5 6 8 5 5 6 6 7 6 7 6 6 6 6 6 5 5 5 5 5 5 6
13 14 14 13 11 11 11 11 11 10 11 11 10 9 6 5 5 5 6 6 3 4 4 6 7 8 9 7 8 7 7 6 5 4 4 4 2 1 1 0 1 1 3 4 4 5 5 4 5 6 5 4 3 5 6 8 5 8 3 7 3 2 6 8 9 5 7 8 7 8 5 7 6 5 4 7 7 6 7 5 6 6 6 6 6
12 12 11 11 8 11 11 10 10 10 10 12 11 9 11 12 10 10 10 9 9 11 10 10 9 5 5 7 7 7 8 8 8 7 6 5 3 3 1 0 0 1 1 2 4 6 6 6 7 7 7 8 7 4 5 6 7 8 7 3 1 2 6 4 1 6 2 5 8 7 6 7 7 7 6 7 6 7 7 6 6 6 7 6 6
12 9 7 9 9 10 12 12 11 11 11 12 11 9 10 10 11 11 11 8 9 10 10 8 9 8 7 5 6 6 5 5 5 6 6 6 6 4 3 1 0 1 2 3 3 3 3 4 5 6 7 7 7 6 5 5 8 8 5 3 4 4 1 2 1 7 1 4 4 4 6 7 5 6 7 7 8 8 6 8 7 8 7 7 6
8 6 7 8 10 10 10 11 11 11 11 11 13 10 11 9 10 8 7 7 7 6 5 6 8 8 8 11 9 10 9 9 7 6 6 5 5 4 3 2 1 1 2 2 4 4 4 5 4 4 6 6 4 6 8 6 4 7 7 8 3 1 2 1 4 1 6 1 3 6 7 4 5 5 7 9 8 6 7 7 8 8 7 7 7
6 7 9 9 11 11 11 11 10 11 11 10 12 11 10 10 11 9 8 8 6 5 7 7 7 8 10 11 10 10 11 10 11 11 10 8 7 7 4 3 2 2 1 2 4 4 3 3 4 5 5 4 5 7 7 6 7 5 8 11 10 5 3 1 2 3 3 5 4 1 3 5 5 6 8 9 8 9 9 8 8 7 7 7 8
9 9 8 8 8 9 11 12 13 12 11 12 12 12 11 10 9 9 10 7 7 7 6 7 9 8 10 10 10 10 11 11 11 11 11 11 11 9 8 6 5 4 1 3 3 3 4 4 4 4 5 6 6 7 7 6 6 8 4 7 8 10 7 6 2 2 4 3 6 3 5 1 3 7 9 9 8 9 10 9 8 8 7 8 8
6 6 7 8 9 10 13 15 14 11 11 13 12 13 12 10 11 11 11 9 9 8 8 10 9 8 9 9 8 9 9 10 10 10 11 11 11 10 9 9 7 5 3 3 3 4 4 4 4 5 5 7 5 6 8 7 7 7 8 6 6 5 6 7 6 5 4 5 11 6 5 6 7 8 10 10 12 10 7 7 7 8 9 8 8
7 8 10 10 9 11 10 14 11 11 12 12 13 13 11 12 11 11 12 11 10 9 10 11 10 11 10 9 8 7 7 8 9 9 10 11 11 10 10 9 8 6 6 4 4 4 5 4 5 4 4 5 6 6 7 7 7 7 7 7 9 8 9 8 8 7 9 9 6 8 5 6 9 7 6 8 9 8 7 7 8 9 10 9 8
Wind_Direction
217 180 179 186 181 177 176 174 171 169 167 166 162 160 160 159 159 156 155 153 154 153 150 147 146 143 139 139 137 130 127 125 125 121 117 115 113 109 106 105 106 101 106 105 104 105 103 101 97 92 90 87 84 79 76 72 69 69 71 71 68 60 55 57 54 54 51 53 62 68 74 78 78 84 93 89 84 78 72 69 64 50 63 69 71
179 184 179 185 182 176 178 175 173 171 170 169 167 166 163 161 159 156 157 157 157 155 153 152 150 148 146 144 140 133 130 128 125 123 119 115 111 107 109 108 104 110 113 114 116 113 107 101 96 92 88 87 84 81 76 71 64 58 57 60 60 58 56 52 48 52 53 39 40 43 51 72 77 81 84 87 84 77 74 68 62 50 36 69 68
145 169 178 185 184 177 178 176 175 173 174 172 170 169 167 162 160 159 158 161 160 158 157 154 152 151 149 148 142 137 134 133 128 126 125 121 115 115 102 95 99 109 117 120 117 114 111 102 97 91 86 85 82 78 72 67 62 58 53 48 51 51 50 44 41 36 31 25 24 28 25 60 82 87 89 87 86 77 75 87 78 64 63 64 68
150 171 175 182 187 182 177 176 173 174 174 174 171 170 168 165 164 162 164 164 161 159 159 156 155 152 149 150 146 141 136 136 135 131 129 123 122 96 91 96 94 94 119 125 122 116 111 102 98 94 89 84 82 78 73 67 63 56 49 45 42 43 44 41 32 21 17 2 359 21 24 11 69 93 94 92 88 77 66 64 79 84 75 66 62
154 161 174 178 185 188 181 177 173 174 175 175 173 172 171 170 169 168 167 167 161 164 163 160 159 155 153 151 149 145 144 144 141 138 134 129 126 108 102 100 101 110 127 131 125 120 110 101 95 91 87 81 76 74 71 65 60 56 48 38 36 39 41 37 27 15 356 344 329 31 30 11 16 98 99 99 95 88 83 80 74 64 62 68 71
155 160 169 176 183 188 185 179 176 175 175 175 173 174 174 173 172 170 170 168 166 167 166 165 163 159 159 156 154 153 152 150 147 145 140 140 136 118 98 110 113 119 128 129 125 118 109 99 95 90 86 80 75 70 64 59 54 48 43 36 28 29 39 33 21 10 352 359 67 94 72 28 359 79 108 106 101 98 98 92 81 72 69 65 60
154 159 165 175 181 187 186 182 181 178 177 176 174 174 174 173 174 173 172 172 171 171 170 169 167 165 164 162 162 160 157 155 152 150 148 144 143 129 110 109 123 130 126 128 121 112 109 97 93 89 83 78 74 66 60 55 48 41 36 30 24 19 28 28 17 12 6 35 84 103 85 66 35 15 100 101 105 108 101 93 85 79 71 63 58
144 159 169 172 179 187 185 183 183 181 181 180 176 175 175 173 175 175 178 175 175 174 175 174 171 171 169 169 167 166 164 162 158 155 154 149 149 138 123 129 136 119 125 128 124 118 105 97 92 87 83 74 68 61 53 50 44 38 31 24 21 18 17 20 22 22 19 60 87 96 98 92 86 72 106 100 89 81 80 87 87 84 80 75 69
160 164 166 172 178 183 186 183 184 183 183 183 179 180 178 176 175 176 179 178 177 178 179 178 176 176 174 174 172 171 170 166 162 160 160 159 151 143 132 124 123 125 124 130 130 114 104 101 98 93 89 82 68 54 47 38 36 33 26 22 19 20 16 17 33 33 26 50 95 104 103 94 78 88 115 109 102 95 87 69 73 82 84 82 76
163 164 169 170 177 183 185 185 185 184 185 183 180 183 183 179 179 180 180 180 179 180 181 182 180 179 180 180 179 177 175 170 166 165 162 160 152 142 136 134 133 138 142 135 129 114 107 103 100 94 87 82 75 63 43 33 28 25 20 18 22 26 21 28 43 41 50 62 73 95 114 107 91 98 114 105 97 89 84 91 98 93 88 82 77
163 169 170 173 177 181 185 187 185 186 186 183 180 185 186 181 182 184 182 184 182 182 183 184 182 184 184 187 185 176 176 173 171 166 166 161 155 143 137 140 147 149 150 143 141 130 123 118 114 102 87 81 71 65 48 36 29 24 19 20 31 30 29 42 53 46 54 64 64 51 81 107 109 112 118 112 100 92 84 80 79 86 86 82 74
168 169 173 175 178 180 184 187 185 186 188 182 182 185 185 183 184 186 185 188 188 188 188 187 186 188 190 192 190 182 178 177 175 164 162 166 159 147 143 143 132 158 145 150 145 153 153 139 117 119 102 86 81 67 56 48 42 38 36 36 38 36 35 50 58 54 52 53 53 39 22 44 141 121 113 108 105 99 90 84 84 81 75 70 70
173 171 174 174 178 183 184 186 185 187 188 184 184 184 186 183 184 188 187 190 193 193 193 193 193 193 193 196 193 181 178 183 175 163 164 170 166 161 148 143 142 135 139 87 49 181 175 167 175 196 131 104 80 65 57 57 58 52 48 53 40 42 45 59 60 62 55 50 43 28 19 355 279 127 113 104 102 98 94 86 78 68 61 60 59
172 176 174 176 182 185 185 187 187 188 188 187 184 186 187 186 184 189 189 191 196 196 197 197 199 201 198 200 195 177 183 189 178 171 169 168 167 168 160 157 156 155 165 165 146 360 234 216 125 119 110 100 87 77 78 72 75 70 65 49 41 42 56 61 67 70 65 53 42 27 23 349 120 119 111 105 92 91 78 67 60 56 56 56 55
170 176 176 177 181 186 188 187 188 189 189 187 186 188 189 187 188 189 191 190 194 197 200 201 198 204 206 201 189 182 185 192 183 175 173 165 169 176 171 175 166 170 182 193 182 197 241 243 160 123 117 104 96 97 106 109 99 92 76 55 50 57 70 73 65 67 67 59 39 31 19 2 84 134 118 106 96 83 76 67 65 64 63 64 58
170 174 173 180 180 183 189 192 189 191 192 188 188 191 192 188 188 191 192 192 191 194 199 199 198 203 210 198 190 189 186 190 190 177 176 171 169 178 182 177 174 183 192 190 215 212 203 202 118 117 118 116 113 115 113 112 104 95 78 62 58 69 80 90 85 71 71 66 45 40 20 3 50 94 149 121 95 90 73 73 72 62 71 67 55
169 171 172 183 181 183 188 191 193 192 193 190 190 192 195 192 191 193 193 191 193 195 195 198 195 200 207 205 192 190 195 190 191 183 176 169 172 176 182 192 185 192 207 210 210 181 192 131 123 122 121 121 127 128 120 108 98 93 78 62 61 74 81 94 91 86 78 67 62 34 15 12 63 74 79 111 119 100 94 74 78 79 73 66 52
173 174 182 180 185 188 187 189 191 193 195 194 194 194 195 196 194 197 196 192 193 195 194 195 193 197 198 194 183 185 188 189 197 185 177 173 175 180 184 199 213 170 192 193 176 191 191 124 126 126 125 128 132 137 120 116 111 97 74 63 63 70 80 91 92 85 78 72 52 30 15 33 85 92 97 109 110 107 99 99 89 82 71 63 65
188 199 184 177 189 187 190 189 190 191 193 192 193 198 196 198 195 197 199 195 194 195 194 194 192 193 193 186 179 180 185 190 189 184 179 174 177 169 170 183 181 181 175 169 174 180 118 127 128 129 133 132 145 139 132 120 113 94 72 62 64 72 80 86 88 83 78 64 46 32 353 90 103 110 111 104 108 109 102 111 108 96 81 76 113
223 210 198 198 182 186 190 192 192 192 193 193 194 192 198 198 198 197 197 197 193 195 196 195 193 191 190 183 178 182 186 183 180 179 177 178 173 167 174 177 179 180 176 175 174 152 132 134 139 139 139 145 152 146 134 128 113 88 69 62 69 76 78 84 90 80 76 71 52 20 2 101 130 124 116 111 116 116 131 127 116 100 111 118 132
242 235 210 203 192 188 191 192 196 195 195 193 196 195 195 196 199 199 197 197 195 193 195 195 192 190 185 183 179 180 185 180 182 182 180 175 172 169 175 176 176 169 175 174 176 167 144 144 150 151 148 154 149 136 142 137 114 87 62 63 70 77 93 92 88 84 67 48 31 0 31 104 137 129 122 125 129 136 127 119 125 132 134 130 109
234 235 234 215 198 200 194 194 195 200 195 196 196 198 196 193 198 198 198 197 197 193 193 191 190 188 185 183 178 179 179 181 181 178 175 173 173 173 176 177 172 168 167 172 180 183 150 157 158 161 162 142 105 79 45 68 95 78 63 65 67 88 94 96 94 91 74 38 17 353 51 139 145 137 133 133 138 137 142 132 128 129 117 109 120
256 237 232 211 206 200 197 197 199 197 196 196 198 199 197 196 202 199 197 195 194 193 190 189 184 185 185 182 177 176 179 177 177 175 171 171 172 175 178 176 173 170 167 172 184 183 174 162 184 171 154 114 102 107 77 33 54 51 62 65 76 89 101 94 90 88 91 33 3 5 28 147 163 153 147 140 138 151 147 143 138 144 145 135 145
231 217 220 211 201 204 203 200 198 194 194 199 199 199 201 197 202 201 196 195 194 195 193 188 184 183 182 178 176 178 179 175 176 173 164 166 176 179 180 176 167 166 167 168 178 184 183 180 177 163 110 104 120 132 140 278 123 59 68 67 68 96 109 113 112 104 77 22 1 7 17 91 164 173 162 161 157 154 150 159 159 131 119 126 150
222 245 257 229 210 204 201 209 200 193 196 200 202 203 200 197 199 202 200 196 194 193 195 191 188 183 180 178 174 173 178 173 168 168 169 164 165 178 179 169 158 166 163 164 166 174 153 144 148 109 131 132 144 189 170 181 163 68 56 36 61 98 106 113 123 120 107 39 349 15 3 5 351 209 182 175 167 170 171 171 165 156 141 156 172
195 206 224 225 218 207 201 202 194 200 200 200 203 204 199 204 202 199 198 198 196 194 193 191 187 185 178 176 164 172 175 169 167 167 166 166 168 174 176 165 161 173 164 164 162 150 150 141 134 137 138 153 170 190 205 183 176 131 26 2 50 109 116 122 127 130 141 112 357 24 5 348 336 288 215 184 178 183 187 183 165 176 173 154 172
205 226 221 224 217 215 207 182 196 200 206 204 201 198 206 209 208 203 200 201 193 193 195 190 188 183 178 172 169 177 174 170 169 172 173 170 173 175 174 172 173 176 175 156 166 161 152 149 146 154 152 160 195 228 233 240 190 166 206 202 215 157 137 141 138 142 180 207 318 46 359 337 329 291 225 200 182 191 192 187 179 168 172 168 165
250 243 229 225 212 218 204 188 197 194 205 200 198 199 204 205 207 206 209 204 195 197 196 193 183 181 180 177 181 174 172 175 179 179 179 170 180 179 174 178 177 179 172 165 161 166 160 154 152 157 160 177 192 228 232 233 221 182 173 198 197 171 168 162 166 169 186 209 255 311 326 308 297 303 239 207 192 197 203 194 183 186 185 175 171
296 314 301 287 258 237 189 203 201 199 201 190 198 201 195 201 201 202 206 198 203 201 198 191 187 179 181 177 178 177 180 179 182 186 164 183 177 177 178 185 180 177 165 180 170 169 172 167 166 168 174 181 197 223 213 219 209 194 176 189 188 178 175 168 170 177 191 205 220 254 254 273 281 263 251 220 201 204 199 203 197 193 195 179 164
324 301 305 245 255 285 236 211 204 201 192 180 203 196 195 194 200 204 202 195 204 199 190 193 194 180 185 185 186 183 183 182 184 176 176 185 180 181 184 186 184 176 176 181 184 170 175 172 169 171 177 186 193 219 192 199 202 190 182 179 184 185 179 171 177 181 186 194 213 240 224 243 281 235 223 235 214 210 208 203 210 217 199 176 178
343 350 340 310 253 195 219 225 218 208 175 190 198 204 190 199 199 197 194 198 197 192 192 193 192 191 190 190 190 190 182 180 177 177 184 180 183 183 193 183 186 189 184 181 173 180 173 180 178 176 181 186 203 201 195 186 191 191 191 173 190 182 184 184 175 179 180 195 200 207 215 212 216 33 228 221 222 208 214 214 214 218 196 192 194
354 344 329 317 302 239 219 214 213 198 185 200 195 199 199 203 193 187 195 196 182 186 191 190 192 193 188 189 193 197 187 183 177 178 180 180 184 188 187 185 197 187 187 176 175 174 174 177 173 173 175 177 197 206 219 185 194 201 186 192 179 188 189 182 179 185 191 192 198 202 194 200 157 126 39 214 199 205 211 225 219 212 206 210 193
337 323 323 328 350 304 251 227 208 194 196 201 197 201 191 191 186 195 195 184 185 183 189 192 194 193 187 188 193 193 191 184 187 181 181 181 181 184 187 197 192 184 184 175 165 162 156 162 177 158 164 170 186 211 214 208 191 210 197 201 183 201 198 179 187 185 192 193 199 195 196 212 351 37 39 25 122 164 175 189 219 210 202 212 215
341 342 354 359 343 322 265 242 200 200 208 208 191 185 189 186 183 179 177 177 189 189 196 195 193 191 189 193 192 195 193 193 181 185 181 180 181 187 187 191 189 184 171 160 171 170 167 166 180 164 186 181 197 202 191 207 219 204 205 198 191 202 191 194 190 194 186 193 194 182 191 182 21 7 7 17 13 86 153 134 146 204 205 211 236
359 6 4 344 356 3 354 28 353 267 229 216 192 200 179 170 171 169 173 179 182 192 195 193 192 195 191 199 197 195 198 193 188 181 186 182 181 187 190 192 179 172 175 178 168 171 167 181 165 184 187 203 201 200 200 204 194 204 206 189 198 201 197 205 198 195 192 194 179 193 187 187 191 228 3 1 4 12 40 120 137 152 198 210 224
10 2 3 5 13 11 14 28 22 34 33 21 13 24 148 141 149 159 168 175 174 185 185 189 194 192 192 198 200 197 196 195 188 184 183 187 186 189 195 179 175 170 178 173 166 176 178 176 185 172 176 218 204 222 213 206 204 210 211 195 201 186 197 207 207 208 208 174 189 192 200 198 193 188 199 270 346 346 7 22 98 102 84 203 225
8 12 14 12 19 11 14 23 22 12 19 37 40 44 54 87 102 135 163 165 175 188 191 180 172 178 191 197 199 197 197 191 186 185 182 187 191 193 188 182 170 172 174 178 184 179 172 177 182 193 185 188 200 220 232 225 211 216 210 205 205 189 194 199 204 207 184 183 192 197 199 204 198 194 184 195 228 317 346 359 8 16 3 352 282
13 16 18 24 22 15 17 21 18 18 21 26 35 43 47 54 51 53 52 55 29 16 159 159 171 177 176 194 192 193 193 187 182 181 187 189 191 189 178 175 170 171 174 175 194 173 175 172 186 196 188 173 193 200 214 220 237 231 229 221 221 202 208 207 215 212 193 199 194 196 201 194 190 198 190 193 199 207 273 329 350 353 342 330 307
17 15 20 22 24 20 20 21 19 11 12 20 21 36 37 46 55 46 48 38 33 38 33 37 17 90 184 183 178 179 179 173 176 175 178 179 182 182 173 177 173 172 170 179 175 168 171 182 186 193 196 195 189 198 188 169 209 272 263 259 265 241 246 238 231 225 220 215 204 206 186 199 193 195 192 192 197 194 199 215 248 291 300 311 304
23 19 22 23 21 20 19 24 17 9 12 19 20 25 35 34 31 15 33 15 19 29 28 30 29 42 29 48 110 151 158 164 167 172 173 175 179 183 183 172 176 167 168 172 178 175 186 188 202 184 191 200 140 157 131 134 76 75 300 301 294 297 269 254 251 236 228 222 221 192 198 202 194 191 193 197 191 197 196 202 207 222 241 270 294
28 22 25 22 23 23 25 22 7 15 23 14 15 20 14 2 24 37 29 8 12 26 37 22 33 25 24 31 42 55 86 116 147 158 174 170 189 177 168 169 169 179 183 193 190 194 195 191 186 178 177 183 204 145 157 136 135 204 345 324 304 295 279 273 249 245 238 237 233 212 221 196 199 191 202 191 192 196 202 206 214 217 223 226 252
20 23 23 20 24 25 28 17 13 16 20 15 3 29 21 15 50 26 53 23 25 30 25 20 16 24 29 32 34 39 50 55 43 28 82 155 164 170 187 189 179 194 203 199 192 195 174 174 149 167 207 184 204 177 171 129 184 191 184 281 306 298 278 289 264 249 234 234 224 224 218 211 208 206 198 189 201 201 203 207 210 216 223 221 227
32 29 19 25 25 25 23 21 19 19 16 14 14 9 352 10 29 13 30 54 54 48 54 25 24 34 26 20 20 25 40 45 39 49 61 43 41 143 250 202 201 203 179 174 167 184 193 189 182 184 193 236 204 176 174 191 176 133 114 77 274 269 299 270 258 243 231 225 223 222 218 218 216 202 195 194 206 209 210 207 210 213 221 223 222
32 27 22 22 23 22 21 22 22 21 20 16 17 5 4 9 24 32 23 59 36 2 39 39 28 32 25 15 19 10 17 28 32 39 35 45 46 31 34 24 290 226 223 209 193 206 192 194 197 214 174 182 211 222 196 201 151 137 241 211 224 157 297 251 234 245 197 219 217 225 215 220 219 215 197 206 208 208 213 200 210 210 216 219 220
35 32 24 22 23 23 22 26 25 23 20 18 19 18 26 24 13 19 26 17 15 18 19 5 7 12 20 18 1 11 15 16 11 15 23 24 32 45 64 89 222 309 306 273 236 225 211 207 201 200 194 200 213 213 217 206 212 214 170 95 7 274 230 258 358 277 227 219 232 227 221 220 216 212 208 224 214 213 207 206 211 213 217 216 221
34 26 26 27 29 29 28 28 29 26 19 17 18 31 43 43 35 32 23 19 25 18 12 353 346 359 343 317 355 20 18 16 20 13 12 11 13 22 41 59 83 171 188 227 254 272 253 232 215 212 215 226 219 198 224 227 225 234 233 210 147 178 221 264 110 275 325 242 254 232 229 227 218 214 221 224 218 220 210 214 205 213 212 215 217
26 19 31 32 35 38 37 37 35 30 21 19 20 26 38 44 54 54 46 36 27 7 354 6 13 358 10 13 356 359 5 7 357 11 10 12 14 17 23 10 334 239 230 235 251 241 237 228 222 219 227 223 220 225 216 218 224 253 253 255 258 166 153 123 239 350 313 314 245 233 245 243 236 233 230 230 227 222 224 219 216 214 212 213 213
19 31 34 30 33 35 39 40 40 37 29 23 29 27 37 35 43 43 43 33 25 1 1 4 17 18 23 16 11 4 2 6 2 355 358 357 358 355 11 14 357 325 300 241 249 255 249 242 216 220 229 228 216 229 231 207 206 226 215 242 250 224 172 154 165 209 230 281 302 300 273 241 242 240 237 238 228 222 221 220 221 215 216 217 215
27 31 31 31 33 35 42 43 42 37 30 30 34 31 35 37 46 43 42 28 15 6 357 21 23 14 26 14 16 7 8 7 12 9 8 4 356 350 345 346 346 331 326 299 288 290 269 261 247 230 222 225 214 220 228 226 216 235 206 241 241 249 247 236 204 162 234 276 272 221 260 287 235 251 246 235 236 226 221 218 214 215 215 220 215
22 28 35 35 34 36 39 43 37 36 31 33 35 36 35 35 40 38 43 29 18 11 21 21 19 16 27 19 13 14 6 6 5 10 10 5 360 355 349 340 337 339 346 307 310 309 295 281 264 245 237 237 230 223 225 229 222 228 222 229 223 239 256 271 254 251 261 202 254 260 222 222 237 241 229 230 229 227 225 222 217 219 221 221 215
22 30 31 30 29 34 37 47 37 36 33 35 36 36 36 36 39 35 35 30 19 23 25 20 15 19 20 15 16 8 13 10 7 6 9 4 358 358 356 344 337 335 333 331 309 297 296 296 295 291 266 246 243 237 236 237 236 233 229 223 236 222 231 229 233 223 233 251 266 260 257 225 228 257 252 235 231 225 218 215 221 222 221 221 217